Regional Weather Roundup
Issued by NWS Mt. Holly, NJ

Home | Current Version | Previous Version | Text Only | Print | Product List | Glossary On
Versions: 1 2 3 4 5 6 7 8 9 10 11 12 13 14 15 16 17 18 19 20 21 22 23 24 25 26 27 28 29 30 31 32 33 34 35 36 37 38 39 40 41 42 43 44 45 46
000
ASUS41 KPHI 121210
RWRPHI

REGIONAL WEATHER ROUNDUP
NATIONAL WEATHER SERVICE MOUNT HOLLY NJ
800 AM EDT SAT JUL 12 2014

NOTE:  "FAIR" INDICATES FEW OR NO CLOUDS BELOW 12,000 FEET WITH NO
SIGNIFICANT WEATHER AND/OR OBSTRUCTIONS TO VISIBILITY.

 * = STATION DOES NOT REPORT PRECIPITATION (E.G. RAIN, SNOW, ETC.)
        OR FOG.

NJZ015>026-121300-
SOUTHERN NEW JERSEY

CITY           SKY/WX    TMP DP  RH WIND       PRES   REMARKS
POMONA         SUNNY     71  68  90 CALM      30.24S
6HR MIN TEMP:  63; 6HR MAX TEMP:  71;

RIO GRANDE*    SUNNY     70  66  88 CALM      30.25S
MILLVILLE      FOG       68  68 100 SE3       30.24S VSB 1/4
WRIGHTSTOWN    MOSUNNY   69  67  93 S5        30.22S
MOUNT HOLLY    MOSUNNY   70  66  87 VRB3      30.24R
TRENTON        SUNNY     71  63  75 MISG      30.23S
6HR MIN TEMP:  65; 6HR MAX TEMP:  72;


$$
NJZ001>014-121300-
NORTHERN NEW JERSEY

CITY           SKY/WX    TMP DP  RH WIND       PRES   REMARKS
SUSSEX         SUNNY     68  63  84 CALM      30.24S
ANDOVER*         N/A     67  64  90 CALM      30.25S
MORRISTOWN     SUNNY     72  68  88 CALM      30.24S
NEWARK         MOSUNNY   75  66  73 CALM      30.23S
TETERBORO      SUNNY     75  66  73 CALM      30.22S
CALDWELL       SUNNY     70  65  84 CALM      30.24S
SOMERVILLE     SUNNY     69  63  81 CALM      30.22S
ALLAIRE*       SUNNY     70  66  88 CALM      30.24S
TOMS RIVER*    PTSUNNY   68  66  94 CALM      30.24F

$$
PAZ043-044-047-054-055-060>062-066>071-121300-
EASTERN PENNSYLVANIA

CITY           SKY/WX    TMP DP  RH WIND       PRES   REMARKS
PHILADELPHIA   MOSUNNY   73  65  75 S5        30.23S
6HR MIN TEMP:  70; 6HR MAX TEMP:  74;

NORTH PHILA    SUNNY     75  63  66 CALM      30.25S
BLUE BELL      SUNNY     72  68  88 CALM      30.23S
DOYLESTOWN     SUNNY     70  65  84 CALM      30.24S
QUAKERTOWN*    SUNNY     70  64  83 CALM      30.25S
POTTSTOWN      SUNNY     71  66  84 CALM      30.25S
LANCASTER      CLOUDY    69  66  90 E3        30.23S
COATESVILLE    PTSUNNY   68  68 100 CALM      30.25S FOG
READING        MOSUNNY   73  65  75 CALM      30.23S
6HR MIN TEMP:  67; 6HR MAX TEMP:  73;

ALLENTOWN      MOSUNNY   70  65  84 CALM      30.24S
6HR MIN TEMP:  64; 6HR MAX TEMP:  70;

MOUNT POCONO   SUNNY     68  63  84 W7        30.28S
6HR MIN TEMP:  59; 6HR MAX TEMP:  68;

HAZLETON       PTSUNNY   68  64  88 S3        30.29S FOG
WILKES BARRE   PTSUNNY   68  62  81 CALM      30.24R

$$
DEZALL-MDZ008-012-015-019-020-121300-
DELAWARE AND EASTERN MARYLAND

CITY           SKY/WX    TMP DP  RH WIND       PRES   REMARKS
WILMINGTON     MOSUNNY   73  67  81 SW5       30.23F
6HR MIN TEMP:  68; 6HR MAX TEMP:  73;

DOVER          PTSUNNY   69  69 100 S3        30.22S
GEORGETOWN     FOG       68  67  96 S9        30.24S VSB 1/4
6HR MIN TEMP:  64; 6HR MAX TEMP:  68;

EASTON         MOSUNNY   72  72 100 CALM      30.26S FOG
PATUXENT       MOSUNNY   75  70  84 CALM      30.22S
OCEAN CITY     MOSUNNY   72  68  87 NE3       30.23S
WALLOPS ISLAND PTSUNNY   74  70  87 CALM      30.23S
CAMBRIDGE      CLOUDY    72  70  94 SE3       30.22F VSB 1
SALISBURY      CLOUDY    70  66  88 CALM      30.23S FOG

$$
PAZ001-021-NYZ056-072-MDZ011-DCZ001-121300-
OTHER NEARBY LOCATIONS

CITY           SKY/WX    TMP DP  RH WIND       PRES   REMARKS
HARRISBURG     PTSUNNY   73  66  78 E3        30.22R
STATE COLLEGE  SUNNY     64  63  94 CALM      30.23S
WILLIAMSPORT   MOSUNNY   65  60  84 E3        30.20F
BINGHAMTON     MOSUNNY   66  60  81 S3        30.23S
NEW YORK CITY  SUNNY     74  61  63 W5        30.26S
BALTIMORE      PTSUNNY   73  68  84 CALM      30.22S
WASHINGTON DC  PTSUNNY   77  69  76 S9        30.22S

$$


USA.gov is the U.S. government's official web portal to all federal, state and local government web resources and services.